Precipitable_Water
1.06 1.08 1.09 0.96 0.84 0.79 0.79 0.81 0.83 0.85 0.85 0.84 0.84 0.84 0.85 0.86 0.87 0.88 0.91 0.90 0.88 0.84 0.81 0.79 0.78 0.77 0.76 0.73 0.69 0.67 0.64 0.63 0.61 0.56 0.52 0.48 0.46 0.45 0.45 0.45 0.43 0.43 0.43 0.42 0.44 0.43 0.42 0.42 0.42 0.44 0.46 0.45 0.46 0.48 0.47 0.47 0.48 0.48 0.48 0.47 0.46 0.47 0.46 0.43 0.38 0.36 0.41 0.48 0.47 0.47 0.52 0.54 0.52 0.55 0.54 0.55 0.56 0.57 0.57 0.56 0.55 0.56 0.56 0.55 0.53
1.08 1.09 1.10 1.07 0.93 0.84 0.83 0.86 0.87 0.86 0.84 0.85 0.85 0.86 0.86 0.87 0.89 0.91 0.91 0.92 0.89 0.86 0.83 0.81 0.79 0.78 0.75 0.73 0.71 0.67 0.64 0.62 0.59 0.54 0.50 0.46 0.46 0.46 0.44 0.43 0.43 0.43 0.43 0.41 0.42 0.42 0.41 0.40 0.40 0.41 0.43 0.42 0.44 0.45 0.45 0.46 0.46 0.46 0.46 0.46 0.46 0.46 0.48 0.44 0.41 0.39 0.36 0.43 0.43 0.48 0.48 0.52 0.47 0.52 0.51 0.51 0.52 0.53 0.51 0.52 0.52 0.52 0.50 0.51 0.51
1.16 1.13 1.13 1.10 1.00 0.91 0.88 0.87 0.87 0.86 0.85 0.86 0.88 0.89 0.89 0.90 0.92 0.91 0.93 0.94 0.90 0.88 0.85 0.83 0.80 0.78 0.76 0.74 0.71 0.67 0.64 0.60 0.58 0.54 0.49 0.47 0.45 0.46 0.45 0.44 0.43 0.42 0.42 0.42 0.42 0.42 0.41 0.41 0.41 0.43 0.45 0.44 0.46 0.47 0.48 0.48 0.48 0.46 0.46 0.48 0.48 0.48 0.49 0.49 0.45 0.41 0.40 0.41 0.47 0.44 0.46 0.48 0.48 0.48 0.50 0.50 0.50 0.50 0.47 0.46 0.46 0.48 0.49 0.50 0.50
1.14 1.15 1.16 1.11 1.06 0.98 0.89 0.88 0.87 0.88 0.86 0.88 0.89 0.92 0.93 0.93 0.92 0.92 0.95 0.96 0.91 0.90 0.88 0.84 0.82 0.78 0.75 0.73 0.70 0.67 0.63 0.59 0.57 0.54 0.49 0.46 0.46 0.46 0.46 0.45 0.45 0.44 0.44 0.43 0.43 0.43 0.42 0.42 0.43 0.45 0.47 0.46 0.47 0.49 0.50 0.51 0.50 0.50 0.50 0.51 0.51 0.51 0.52 0.52 0.51 0.47 0.45 0.42 0.46 0.47 0.47 0.45 0.46 0.49 0.50 0.49 0.48 0.49 0.50 0.50 0.52 0.50 0.50 0.51 0.51
1.11 1.11 1.12 1.08 1.07 0.98 0.97 0.94 0.91 0.90 0.89 0.90 0.90 0.92 0.94 0.94 0.93 0.94 0.96 0.96 0.94 0.93 0.89 0.87 0.83 0.79 0.76 0.72 0.69 0.65 0.61 0.58 0.54 0.52 0.52 0.51 0.48 0.47 0.47 0.47 0.47 0.47 0.46 0.46 0.45 0.45 0.44 0.44 0.45 0.46 0.47 0.46 0.47 0.48 0.50 0.50 0.51 0.50 0.50 0.51 0.51 0.52 0.52 0.52 0.51 0.50 0.46 0.43 0.44 0.48 0.49 0.48 0.49 0.50 0.51 0.48 0.49 0.51 0.52 0.52 0.52 0.53 0.53 0.55 0.54
1.13 1.12 1.11 1.08 1.05 0.97 0.91 0.91 0.91 0.95 0.91 0.91 0.91 0.92 0.93 0.93 0.93 0.94 0.96 0.95 0.96 0.94 0.91 0.88 0.85 0.81 0.77 0.73 0.68 0.64 0.61 0.57 0.53 0.50 0.49 0.50 0.50 0.50 0.50 0.50 0.49 0.49 0.49 0.49 0.48 0.47 0.47 0.47 0.48 0.49 0.49 0.48 0.48 0.49 0.50 0.49 0.50 0.50 0.50 0.50 0.51 0.51 0.51 0.51 0.51 0.49 0.48 0.46 0.45 0.45 0.49 0.48 0.48 0.50 0.53 0.54 0.51 0.49 0.51 0.53 0.53 0.53 0.52 0.53 0.57
1.13 1.13 1.12 1.10 1.05 1.01 0.95 0.92 0.95 0.96 0.96 0.95 0.94 0.95 0.94 0.93 0.93 0.93 0.95 0.95 0.95 0.93 0.93 0.90 0.87 0.81 0.77 0.72 0.68 0.65 0.60 0.55 0.52 0.50 0.49 0.50 0.49 0.49 0.50 0.51 0.51 0.51 0.51 0.51 0.51 0.51 0.51 0.51 0.52 0.52 0.52 0.52 0.51 0.51 0.52 0.52 0.51 0.51 0.52 0.51 0.51 0.51 0.50 0.50 0.50 0.49 0.48 0.46 0.46 0.47 0.47 0.50 0.49 0.46 0.50 0.53 0.52 0.51 0.48 0.48 0.49 0.54 0.56 0.56 0.55
1.15 1.13 1.11 1.10 1.08 1.06 1.03 1.00 0.98 0.97 0.99 1.01 1.00 0.99 0.97 0.95 0.94 0.94 0.95 0.95 0.95 0.93 0.93 0.91 0.89 0.83 0.78 0.73 0.69 0.65 0.60 0.55 0.51 0.49 0.48 0.47 0.47 0.48 0.50 0.51 0.52 0.53 0.53 0.53 0.53 0.53 0.53 0.53 0.53 0.54 0.54 0.54 0.54 0.55 0.55 0.52 0.53 0.51 0.53 0.53 0.52 0.51 0.50 0.50 0.50 0.49 0.48 0.46 0.45 0.44 0.46 0.46 0.48 0.49 0.50 0.50 0.48 0.49 0.52 0.50 0.46 0.48 0.50 0.54 0.55
1.13 1.11 1.10 1.08 1.07 1.08 1.08 1.07 1.06 1.02 0.99 0.99 1.00 1.00 0.99 0.99 0.98 0.96 0.95 0.95 0.95 0.95 0.95 0.93 0.88 0.81 0.77 0.73 0.68 0.66 0.58 0.51 0.49 0.47 0.46 0.47 0.48 0.48 0.49 0.50 0.52 0.53 0.53 0.54 0.54 0.55 0.55 0.55 0.56 0.56 0.57 0.57 0.57 0.56 0.54 0.53 0.52 0.51 0.53 0.53 0.52 0.50 0.50 0.50 0.49 0.48 0.46 0.45 0.44 0.45 0.44 0.44 0.46 0.46 0.45 0.45 0.44 0.44 0.48 0.50 0.47 0.49 0.51 0.52 0.55
1.14 1.12 1.11 1.10 1.10 1.09 1.09 1.10 1.10 1.10 1.02 0.97 0.99 1.00 0.99 0.98 0.97 0.96 0.95 0.96 0.96 0.95 0.94 0.92 0.87 0.81 0.74 0.71 0.69 0.64 0.57 0.53 0.47 0.42 0.41 0.43 0.45 0.46 0.48 0.50 0.51 0.52 0.53 0.53 0.54 0.55 0.56 0.57 0.57 0.57 0.57 0.57 0.58 0.57 0.55 0.54 0.54 0.53 0.53 0.52 0.51 0.50 0.49 0.47 0.46 0.46 0.45 0.43 0.43 0.43 0.41 0.42 0.44 0.46 0.45 0.47 0.49 0.50 0.48 0.48 0.44 0.47 0.49 0.49 0.52
1.11 1.10 1.12 1.11 1.09 1.08 1.09 1.09 1.11 1.07 1.02 0.99 0.99 1.00 1.00 1.01 1.00 0.97 0.96 0.95 0.94 0.93 0.92 0.89 0.85 0.80 0.74 0.71 0.68 0.63 0.56 0.52 0.42 0.40 0.40 0.41 0.42 0.45 0.46 0.47 0.49 0.50 0.51 0.52 0.52 0.54 0.56 0.57 0.59 0.59 0.60 0.59 0.60 0.59 0.57 0.56 0.54 0.53 0.52 0.52 0.51 0.50 0.47 0.46 0.46 0.47 0.45 0.44 0.45 0.44 0.43 0.42 0.44 0.47 0.47 0.48 0.49 0.49 0.48 0.48 0.47 0.46 0.44 0.42 0.40
1.06 1.09 1.11 1.09 1.11 1.11 1.10 1.10 1.10 1.07 1.04 0.99 1.01 1.01 1.00 0.99 0.98 0.96 0.93 0.92 0.92 0.93 0.90 0.87 0.83 0.78 0.74 0.71 0.67 0.60 0.55 0.46 0.40 0.39 0.39 0.39 0.40 0.42 0.43 0.45 0.47 0.47 0.49 0.50 0.52 0.54 0.55 0.57 0.59 0.60 0.60 0.60 0.59 0.59 0.58 0.56 0.54 0.53 0.52 0.51 0.51 0.51 0.50 0.48 0.45 0.44 0.45 0.43 0.43 0.43 0.43 0.42 0.43 0.46 0.46 0.48 0.48 0.49 0.50 0.49 0.48 0.46 0.45 0.44 0.44
1.04 1.07 1.10 1.04 1.09 1.12 1.11 1.09 1.09 1.07 1.05 1.02 1.02 1.02 1.00 0.99 0.98 0.95 0.93 0.92 0.92 0.93 0.90 0.86 0.81 0.78 0.74 0.70 0.65 0.58 0.54 0.42 0.38 0.38 0.38 0.38 0.39 0.39 0.42 0.45 0.46 0.47 0.48 0.50 0.52 0.54 0.56 0.57 0.58 0.59 0.60 0.59 0.58 0.57 0.56 0.55 0.55 0.54 0.54 0.53 0.53 0.52 0.51 0.50 0.50 0.48 0.47 0.44 0.43 0.42 0.43 0.44 0.44 0.46 0.49 0.49 0.51 0.46 0.47 0.45 0.46 0.46 0.46 0.44 0.45
1.01 1.03 1.07 1.09 1.11 1.12 1.11 1.09 1.08 1.06 1.05 1.04 1.03 0.98 1.00 0.99 0.98 0.97 0.95 0.93 0.94 0.94 0.89 0.84 0.80 0.76 0.73 0.69 0.63 0.57 0.53 0.41 0.38 0.37 0.37 0.37 0.37 0.38 0.43 0.46 0.47 0.48 0.49 0.50 0.52 0.54 0.56 0.56 0.56 0.57 0.58 0.58 0.58 0.57 0.55 0.54 0.54 0.54 0.54 0.53 0.52 0.52 0.52 0.51 0.50 0.50 0.49 0.47 0.46 0.43 0.47 0.49 0.46 0.49 0.52 0.52 0.48 0.45 0.45 0.44 0.46 0.45 0.45 0.44 0.48
0.98 1.01 1.03 1.07 1.09 1.10 1.10 1.08 1.09 1.10 1.07 1.06 1.01 0.95 0.96 0.99 1.00 0.98 0.96 0.94 0.95 0.92 0.87 0.82 0.78 0.75 0.73 0.69 0.62 0.55 0.52 0.41 0.38 0.37 0.36 0.36 0.36 0.39 0.44 0.47 0.48 0.49 0.51 0.52 0.53 0.54 0.56 0.57 0.57 0.57 0.57 0.57 0.58 0.55 0.53 0.52 0.51 0.51 0.51 0.50 0.49 0.50 0.50 0.50 0.50 0.50 0.50 0.50 0.49 0.48 0.49 0.51 0.51 0.52 0.53 0.53 0.51 0.50 0.49 0.48 0.48 0.48 0.49 0.51 0.50
0.95 0.98 0.98 1.02 1.05 1.08 1.08 1.06 1.06 1.06 1.05 1.04 1.00 0.96 0.94 0.95 0.98 0.99 0.97 0.97 0.96 0.91 0.87 0.81 0.77 0.74 0.73 0.69 0.61 0.52 0.50 0.40 0.37 0.37 0.36 0.35 0.36 0.40 0.45 0.47 0.48 0.49 0.51 0.53 0.54 0.56 0.57 0.57 0.57 0.56 0.56 0.57 0.56 0.53 0.51 0.49 0.48 0.46 0.43 0.42 0.43 0.44 0.46 0.48 0.49 0.48 0.49 0.49 0.49 0.48 0.48 0.49 0.49 0.49 0.50 0.50 0.50 0.51 0.51 0.52 0.52 0.50 0.48 0.45 0.44
0.92 0.96 0.97 0.99 1.02 1.04 1.05 1.05 1.05 1.05 1.04 1.02 1.01 1.02 1.02 1.02 1.01 1.01 0.96 0.95 0.92 0.88 0.82 0.78 0.77 0.74 0.73 0.69 0.61 0.51 0.49 0.39 0.36 0.36 0.35 0.34 0.37 0.41 0.45 0.46 0.47 0.49 0.51 0.53 0.55 0.56 0.56 0.57 0.57 0.56 0.55 0.56 0.53 0.50 0.48 0.45 0.42 0.42 0.41 0.41 0.41 0.41 0.41 0.44 0.43 0.43 0.45 0.46 0.47 0.48 0.48 0.48 0.49 0.50 0.50 0.51 0.51 0.52 0.50 0.47 0.45 0.48 0.44 0.41 0.43
0.88 0.91 0.93 0.96 1.00 1.03 1.03 1.02 1.03 1.04 1.03 1.02 1.01 1.01 1.02 1.00 0.99 0.99 0.94 0.91 0.88 0.85 0.81 0.78 0.77 0.76 0.74 0.70 0.62 0.50 0.49 0.42 0.35 0.34 0.33 0.33 0.36 0.42 0.45 0.45 0.46 0.48 0.50 0.53 0.54 0.54 0.55 0.53 0.52 0.54 0.53 0.52 0.49 0.46 0.44 0.42 0.39 0.40 0.39 0.37 0.35 0.34 0.36 0.37 0.33 0.36 0.40 0.43 0.45 0.47 0.48 0.49 0.50 0.51 0.52 0.53 0.54 0.54 0.50 0.44 0.48 0.49 0.45 0.45 0.43
0.84 0.87 0.90 0.94 0.97 0.99 0.99 0.99 0.99 0.98 1.00 1.02 1.01 0.98 0.99 0.98 0.95 0.95 0.95 0.93 0.91 0.87 0.82 0.79 0.78 0.77 0.76 0.72 0.63 0.49 0.47 0.42 0.34 0.32 0.32 0.33 0.35 0.41 0.44 0.43 0.44 0.46 0.47 0.49 0.51 0.51 0.51 0.50 0.48 0.47 0.46 0.44 0.41 0.40 0.39 0.37 0.35 0.34 0.32 0.31 0.29 0.28 0.29 0.27 0.25 0.29 0.33 0.36 0.40 0.44 0.46 0.49 0.51 0.52 0.53 0.54 0.54 0.55 0.56 0.54 0.55 0.52 0.48 0.48 0.47
0.81 0.84 0.87 0.90 0.93 0.95 0.96 0.95 0.96 0.98 0.97 0.98 1.01 1.01 1.00 0.99 0.98 0.97 0.94 0.92 0.90 0.86 0.82 0.79 0.78 0.77 0.77 0.72 0.65 0.49 0.44 0.44 0.35 0.32 0.31 0.32 0.34 0.37 0.42 0.42 0.41 0.43 0.44 0.43 0.44 0.45 0.45 0.46 0.43 0.40 0.37 0.34 0.32 0.30 0.29 0.28 0.26 0.25 0.26 0.27 0.25 0.22 0.23 0.21 0.23 0.27 0.31 0.35 0.38 0.41 0.43 0.46 0.49 0.50 0.51 0.52 0.54 0.57 0.57 0.58 0.58 0.56 0.54 0.52 0.52
0.81 0.82 0.83 0.84 0.88 0.90 0.92 0.92 0.92 0.95 0.97 0.96 0.96 0.97 0.96 0.94 0.94 0.92 0.92 0.91 0.89 0.85 0.82 0.80 0.79 0.77 0.76 0.73 0.66 0.54 0.45 0.42 0.38 0.33 0.31 0.31 0.32 0.32 0.35 0.38 0.40 0.40 0.41 0.40 0.39 0.40 0.41 0.41 0.41 0.35 0.32 0.28 0.25 0.24 0.22 0.22 0.22 0.21 0.26 0.26 0.22 0.19 0.19 0.19 0.22 0.26 0.31 0.34 0.36 0.37 0.40 0.43 0.46 0.48 0.49 0.50 0.53 0.56 0.59 0.60 0.61 0.61 0.58 0.56 0.54
0.80 0.81 0.81 0.81 0.82 0.84 0.87 0.89 0.91 0.92 0.93 0.94 0.93 0.92 0.95 0.96 0.94 0.92 0.91 0.90 0.87 0.84 0.82 0.78 0.76 0.75 0.75 0.73 0.66 0.59 0.49 0.39 0.42 0.34 0.31 0.30 0.30 0.31 0.29 0.35 0.35 0.36 0.34 0.35 0.35 0.36 0.36 0.35 0.36 0.32 0.27 0.23 0.20 0.20 0.20 0.20 0.20 0.21 0.25 0.21 0.18 0.17 0.18 0.20 0.24 0.27 0.29 0.32 0.34 0.35 0.37 0.39 0.42 0.45 0.48 0.50 0.52 0.56 0.60 0.62 0.63 0.64 0.65 0.64 0.61
0.77 0.78 0.79 0.79 0.80 0.81 0.83 0.85 0.86 0.89 0.90 0.92 0.91 0.89 0.92 0.91 0.91 0.92 0.91 0.88 0.85 0.81 0.80 0.77 0.75 0.75 0.75 0.73 0.67 0.60 0.53 0.43 0.36 0.33 0.30 0.29 0.28 0.27 0.27 0.27 0.27 0.27 0.26 0.30 0.33 0.34 0.34 0.31 0.30 0.25 0.21 0.18 0.18 0.18 0.18 0.19 0.20 0.23 0.21 0.18 0.17 0.18 0.18 0.23 0.25 0.26 0.26 0.28 0.30 0.31 0.33 0.35 0.38 0.42 0.46 0.49 0.53 0.57 0.60 0.63 0.65 0.67 0.67 0.68 0.70
0.73 0.73 0.75 0.77 0.79 0.81 0.82 0.83 0.85 0.86 0.87 0.88 0.88 0.88 0.88 0.88 0.88 0.89 0.89 0.88 0.84 0.81 0.78 0.75 0.73 0.71 0.70 0.69 0.67 0.61 0.55 0.48 0.39 0.33 0.30 0.29 0.27 0.26 0.24 0.24 0.22 0.23 0.27 0.30 0.33 0.32 0.30 0.29 0.25 0.20 0.17 0.17 0.17 0.17 0.18 0.19 0.20 0.18 0.18 0.17 0.17 0.19 0.22 0.24 0.24 0.24 0.23 0.26 0.26 0.27 0.29 0.32 0.35 0.40 0.45 0.50 0.53 0.58 0.61 0.65 0.68 0.70 0.71 0.73 0.75
0.66 0.69 0.71 0.74 0.75 0.77 0.79 0.80 0.81 0.83 0.85 0.85 0.84 0.85 0.85 0.84 0.82 0.87 0.87 0.87 0.84 0.80 0.77 0.75 0.72 0.71 0.71 0.69 0.67 0.62 0.57 0.50 0.44 0.35 0.31 0.28 0.27 0.25 0.23 0.22 0.21 0.21 0.20 0.24 0.28 0.29 0.25 0.22 0.18 0.16 0.15 0.16 0.16 0.17 0.20 0.21 0.20 0.18 0.17 0.18 0.19 0.25 0.23 0.22 0.22 0.22 0.22 0.22 0.22 0.24 0.27 0.29 0.33 0.39 0.48 0.52 0.55 0.59 0.62 0.66 0.69 0.72 0.76 0.80 0.78
0.56 0.59 0.64 0.70 0.74 0.76 0.75 0.77 0.78 0.80 0.81 0.82 0.83 0.84 0.84 0.81 0.80 0.82 0.85 0.85 0.84 0.81 0.76 0.74 0.74 0.72 0.70 0.70 0.68 0.64 0.58 0.51 0.45 0.39 0.32 0.29 0.26 0.24 0.23 0.22 0.21 0.20 0.19 0.26 0.26 0.24 0.21 0.17 0.15 0.16 0.16 0.18 0.19 0.22 0.22 0.23 0.20 0.19 0.20 0.21 0.25 0.23 0.21 0.21 0.21 0.20 0.21 0.21 0.21 0.22 0.25 0.29 0.32 0.38 0.46 0.51 0.54 0.56 0.60 0.63 0.66 0.69 0.74 0.75 0.74
0.50 0.50 0.53 0.60 0.68 0.73 0.75 0.75 0.76 0.78 0.79 0.80 0.80 0.81 0.82 0.81 0.81 0.81 0.81 0.79 0.79 0.78 0.77 0.73 0.71 0.70 0.70 0.70 0.68 0.64 0.59 0.54 0.47 0.41 0.34 0.28 0.25 0.25 0.23 0.22 0.21 0.21 0.20 0.20 0.19 0.17 0.17 0.18 0.18 0.18 0.18 0.18 0.16 0.16 0.17 0.18 0.22 0.24 0.24 0.24 0.23 0.22 0.21 0.20 0.20 0.19 0.22 0.21 0.21 0.23 0.25 0.29 0.33 0.35 0.40 0.48 0.52 0.56 0.60 0.63 0.65 0.67 0.71 0.74 0.73
0.49 0.46 0.47 0.50 0.57 0.64 0.69 0.72 0.73 0.73 0.76 0.77 0.77 0.77 0.77 0.79 0.79 0.78 0.78 0.77 0.75 0.75 0.73 0.72 0.69 0.69 0.70 0.70 0.68 0.64 0.60 0.56 0.50 0.41 0.35 0.29 0.26 0.26 0.24 0.23 0.23 0.21 0.22 0.26 0.26 0.26 0.24 0.21 0.18 0.18 0.20 0.20 0.21 0.22 0.23 0.23 0.22 0.21 0.20 0.21 0.21 0.23 0.21 0.22 0.23 0.24 0.24 0.22 0.23 0.24 0.26 0.28 0.29 0.31 0.36 0.44 0.51 0.55 0.60 0.62 0.63 0.65 0.70 0.72 0.70
0.51 0.50 0.51 0.51 0.54 0.58 0.63 0.67 0.70 0.73 0.75 0.77 0.78 0.78 0.76 0.76 0.77 0.80 0.83 0.82 0.80 0.77 0.77 0.75 0.74 0.74 0.73 0.71 0.68 0.63 0.59 0.54 0.51 0.44 0.36 0.30 0.27 0.26 0.26 0.25 0.26 0.26 0.25 0.24 0.23 0.22 0.20 0.20 0.22 0.21 0.21 0.19 0.19 0.19 0.20 0.20 0.21 0.21 0.21 0.20 0.21 0.22 0.21 0.23 0.22 0.22 0.21 0.21 0.22 0.22 0.23 0.24 0.27 0.29 0.33 0.38 0.47 0.52 0.58 0.60 0.63 0.64 0.67 0.69 0.67
0.51 0.51 0.52 0.52 0.54 0.57 0.60 0.62 0.65 0.69 0.72 0.74 0.76 0.78 0.82 0.81 0.80 0.80 0.80 0.83 0.83 0.83 0.81 0.77 0.77 0.77 0.74 0.72 0.70 0.64 0.59 0.56 0.54 0.44 0.35 0.29 0.26 0.26 0.26 0.26 0.25 0.26 0.23 0.19 0.17 0.21 0.22 0.21 0.21 0.20 0.20 0.19 0.19 0.19 0.18 0.18 0.19 0.19 0.21 0.19 0.21 0.22 0.19 0.22 0.22 0.22 0.20 0.22 0.22 0.23 0.22 0.23 0.24 0.27 0.30 0.33 0.42 0.48 0.55 0.58 0.59 0.63 0.63 0.63 0.64
0.50 0.49 0.51 0.54 0.56 0.57 0.57 0.57 0.59 0.63 0.67 0.71 0.73 0.74 0.76 0.79 0.81 0.81 0.81 0.83 0.84 0.82 0.82 0.82 0.79 0.78 0.75 0.70 0.70 0.67 0.63 0.57 0.52 0.45 0.35 0.28 0.24 0.23 0.23 0.22 0.21 0.21 0.20 0.18 0.15 0.18 0.20 0.19 0.19 0.18 0.17 0.18 0.17 0.18 0.17 0.18 0.18 0.18 0.19 0.20 0.22 0.21 0.20 0.22 0.21 0.21 0.23 0.23 0.22 0.23 0.23 0.23 0.23 0.25 0.28 0.30 0.35 0.41 0.48 0.54 0.58 0.59 0.60 0.61 0.61
0.51 0.49 0.51 0.53 0.56 0.58 0.57 0.56 0.57 0.58 0.62 0.66 0.69 0.72 0.73 0.74 0.74 0.77 0.79 0.81 0.83 0.81 0.79 0.79 0.78 0.77 0.75 0.72 0.69 0.64 0.60 0.57 0.52 0.43 0.34 0.27 0.24 0.23 0.22 0.21 0.19 0.19 0.19 0.17 0.18 0.19 0.18 0.18 0.18 0.18 0.17 0.16 0.16 0.15 0.16 0.17 0.17 0.17 0.18 0.19 0.19 0.20 0.19 0.20 0.20 0.23 0.24 0.23 0.22 0.23 0.22 0.24 0.23 0.25 0.28 0.29 0.31 0.35 0.40 0.45 0.50 0.53 0.56 0.58 0.60
0.52 0.51 0.50 0.51 0.53 0.55 0.55 0.56 0.57 0.57 0.59 0.62 0.65 0.67 0.69 0.71 0.72 0.69 0.74 0.78 0.80 0.80 0.80 0.77 0.76 0.75 0.73 0.71 0.69 0.65 0.62 0.58 0.51 0.42 0.35 0.28 0.24 0.22 0.21 0.20 0.20 0.20 0.19 0.17 0.16 0.18 0.17 0.17 0.17 0.18 0.15 0.16 0.15 0.15 0.15 0.15 0.16 0.16 0.18 0.18 0.18 0.19 0.19 0.20 0.23 0.23 0.23 0.22 0.24 0.24 0.22 0.25 0.23 0.26 0.28 0.30 0.30 0.31 0.34 0.38 0.43 0.46 0.49 0.51 0.55
0.56 0.54 0.50 0.49 0.49 0.49 0.51 0.53 0.55 0.58 0.61 0.63 0.63 0.64 0.67 0.70 0.72 0.71 0.69 0.71 0.74 0.74 0.79 0.77 0.76 0.74 0.71 0.70 0.67 0.65 0.62 0.56 0.50 0.43 0.35 0.28 0.24 0.22 0.20 0.20 0.21 0.20 0.19 0.18 0.19 0.18 0.18 0.17 0.16 0.16 0.15 0.14 0.14 0.14 0.13 0.15 0.15 0.15 0.17 0.18 0.18 0.19 0.19 0.21 0.23 0.22 0.23 0.24 0.24 0.23 0.23 0.24 0.24 0.25 0.27 0.29 0.30 0.30 0.31 0.34 0.37 0.39 0.41 0.44 0.47
0.57 0.62 0.65 0.63 0.55 0.50 0.52 0.55 0.57 0.60 0.63 0.63 0.62 0.63 0.64 0.69 0.71 0.72 0.70 0.69 0.69 0.70 0.71 0.74 0.76 0.74 0.70 0.68 0.67 0.65 0.60 0.56 0.52 0.45 0.37 0.30 0.25 0.22 0.22 0.20 0.18 0.18 0.18 0.18 0.20 0.19 0.18 0.17 0.17 0.16 0.15 0.14 0.14 0.14 0.14 0.13 0.14 0.16 0.17 0.18 0.18 0.18 0.19 0.20 0.19 0.20 0.21 0.23 0.23 0.23 0.22 0.24 0.25 0.24 0.27 0.27 0.29 0.28 0.28 0.29 0.33 0.35 0.37 0.38 0.41
0.59 0.53 0.56 0.61 0.64 0.64 0.58 0.58 0.60 0.62 0.63 0.63 0.64 0.65 0.66 0.68 0.70 0.72 0.72 0.71 0.71 0.72 0.74 0.75 0.75 0.73 0.70 0.69 0.68 0.64 0.61 0.56 0.50 0.43 0.36 0.31 0.27 0.24 0.20 0.19 0.18 0.18 0.18 0.17 0.17 0.18 0.18 0.18 0.17 0.17 0.16 0.15 0.15 0.14 0.15 0.14 0.14 0.16 0.18 0.17 0.18 0.18 0.19 0.19 0.19 0.20 0.21 0.23 0.22 0.22 0.24 0.25 0.25 0.25 0.26 0.26 0.27 0.28 0.29 0.28 0.29 0.31 0.35 0.36 0.36
0.58 0.55 0.56 0.67 0.64 0.65 0.61 0.60 0.61 0.62 0.62 0.63 0.64 0.65 0.66 0.68 0.70 0.72 0.73 0.71 0.71 0.73 0.74 0.75 0.74 0.70 0.70 0.70 0.67 0.61 0.55 0.49 0.45 0.41 0.37 0.33 0.29 0.26 0.23 0.21 0.20 0.21 0.20 0.20 0.19 0.18 0.17 0.17 0.16 0.17 0.16 0.15 0.15 0.15 0.15 0.16 0.16 0.17 0.16 0.17 0.18 0.19 0.19 0.18 0.18 0.19 0.22 0.22 0.23 0.24 0.25 0.25 0.25 0.24 0.24 0.23 0.25 0.26 0.27 0.28 0.28 0.27 0.28 0.28 0.30
0.58 0.56 0.57 0.65 0.67 0.61 0.61 0.61 0.62 0.62 0.61 0.62 0.63 0.64 0.65 0.67 0.68 0.70 0.70 0.71 0.72 0.72 0.71 0.72 0.72 0.68 0.65 0.65 0.64 0.55 0.48 0.45 0.43 0.40 0.38 0.34 0.30 0.26 0.24 0.23 0.23 0.21 0.21 0.20 0.20 0.19 0.17 0.18 0.18 0.17 0.17 0.17 0.17 0.16 0.16 0.17 0.18 0.19 0.20 0.19 0.19 0.19 0.14 0.18 0.19 0.22 0.20 0.22 0.23 0.23 0.23 0.23 0.24 0.24 0.23 0.23 0.23 0.25 0.25 0.27 0.28 0.26 0.26 0.26 0.27
0.62 0.61 0.59 0.65 0.68 0.63 0.61 0.60 0.60 0.59 0.60 0.60 0.62 0.62 0.63 0.64 0.66 0.67 0.68 0.70 0.71 0.71 0.71 0.70 0.68 0.67 0.65 0.64 0.59 0.53 0.48 0.44 0.41 0.38 0.36 0.34 0.31 0.28 0.26 0.24 0.23 0.21 0.21 0.21 0.21 0.19 0.18 0.18 0.18 0.18 0.18 0.17 0.17 0.16 0.16 0.17 0.18 0.19 0.19 0.19 0.20 0.21 0.20 0.21 0.21 0.21 0.21 0.22 0.22 0.23 0.22 0.22 0.23 0.23 0.23 0.23 0.23 0.24 0.24 0.25 0.25 0.26 0.24 0.24 0.26
0.62 0.63 0.64 0.66 0.69 0.65 0.66 0.62 0.60 0.58 0.58 0.58 0.59 0.62 0.62 0.63 0.65 0.66 0.67 0.69 0.70 0.71 0.70 0.70 0.68 0.68 0.69 0.63 0.56 0.52 0.46 0.42 0.40 0.38 0.36 0.34 0.32 0.29 0.27 0.25 0.24 0.23 0.21 0.20 0.21 0.20 0.18 0.18 0.19 0.18 0.17 0.17 0.17 0.16 0.16 0.18 0.18 0.19 0.18 0.19 0.19 0.18 0.19 0.20 0.19 0.20 0.21 0.21 0.21 0.22 0.21 0.20 0.21 0.21 0.22 0.23 0.23 0.23 0.22 0.22 0.22 0.23 0.24 0.23 0.23
0.62 0.65 0.63 0.63 0.68 0.63 0.65 0.63 0.60 0.58 0.57 0.57 0.59 0.60 0.62 0.64 0.65 0.67 0.67 0.69 0.71 0.71 0.70 0.70 0.70 0.71 0.67 0.61 0.55 0.51 0.47 0.44 0.42 0.39 0.37 0.34 0.32 0.31 0.29 0.27 0.25 0.24 0.22 0.21 0.21 0.20 0.20 0.19 0.19 0.18 0.18 0.17 0.17 0.16 0.16 0.17 0.18 0.18 0.19 0.19 0.17 0.18 0.19 0.21 0.20 0.19 0.20 0.19 0.20 0.20 0.20 0.20 0.20 0.20 0.20 0.21 0.21 0.23 0.23 0.23 0.23 0.22 0.22 0.22 0.23
0.62 0.64 0.63 0.65 0.68 0.65 0.65 0.61 0.61 0.58 0.57 0.57 0.57 0.59 0.62 0.64 0.65 0.66 0.67 0.68 0.70 0.70 0.70 0.70 0.71 0.71 0.69 0.61 0.56 0.54 0.52 0.49 0.46 0.43 0.39 0.36 0.34 0.33 0.31 0.29 0.27 0.25 0.24 0.21 0.21 0.20 0.19 0.19 0.19 0.18 0.18 0.18 0.17 0.16 0.16 0.17 0.18 0.18 0.19 0.18 0.19 0.18 0.20 0.20 0.19 0.18 0.19 0.20 0.19 0.19 0.20 0.19 0.19 0.18 0.18 0.20 0.21 0.22 0.22 0.22 0.22 0.22 0.22 0.21 0.21
0.60 0.62 0.62 0.61 0.67 0.63 0.63 0.63 0.61 0.59 0.58 0.57 0.56 0.57 0.58 0.60 0.61 0.64 0.65 0.68 0.69 0.69 0.69 0.69 0.69 0.70 0.67 0.62 0.58 0.56 0.55 0.53 0.49 0.46 0.42 0.39 0.37 0.35 0.33 0.29 0.27 0.25 0.24 0.23 0.23 0.22 0.20 0.19 0.18 0.18 0.18 0.18 0.17 0.16 0.16 0.17 0.18 0.19 0.19 0.19 0.19 0.19 0.19 0.20 0.19 0.18 0.18 0.18 0.19 0.18 0.18 0.19 0.20 0.20 0.19 0.19 0.20 0.21 0.21 0.20 0.21 0.21 0.20 0.21 0.20
0.62 0.62 0.62 0.62 0.61 0.66 0.63 0.66 0.64 0.61 0.59 0.57 0.58 0.56 0.56 0.55 0.57 0.60 0.62 0.65 0.68 0.69 0.69 0.70 0.70 0.70 0.67 0.62 0.59 0.57 0.55 0.55 0.53 0.49 0.45 0.42 0.39 0.37 0.35 0.32 0.28 0.26 0.26 0.24 0.23 0.22 0.21 0.19 0.18 0.18 0.19 0.18 0.18 0.17 0.17 0.19 0.20 0.19 0.19 0.19 0.19 0.19 0.19 0.19 0.19 0.19 0.19 0.19 0.19 0.19 0.19 0.18 0.19 0.19 0.17 0.18 0.18 0.18 0.19 0.19 0.19 0.20 0.20 0.20 0.20
0.61 0.59 0.60 0.60 0.60 0.61 0.64 0.65 0.65 0.63 0.60 0.59 0.59 0.59 0.59 0.57 0.56 0.57 0.59 0.62 0.67 0.69 0.69 0.70 0.70 0.69 0.65 0.61 0.60 0.58 0.57 0.57 0.56 0.53 0.49 0.45 0.43 0.41 0.38 0.35 0.31 0.28 0.27 0.25 0.24 0.22 0.21 0.19 0.18 0.18 0.18 0.18 0.18 0.17 0.18 0.20 0.20 0.20 0.20 0.20 0.19 0.17 0.19 0.19 0.19 0.20 0.19 0.18 0.19 0.19 0.20 0.19 0.19 0.19 0.18 0.17 0.15 0.18 0.18 0.17 0.18 0.16 0.17 0.17 0.17
0.60 0.61 0.61 0.60 0.60 0.62 0.64 0.62 0.63 0.63 0.63 0.61 0.59 0.59 0.59 0.59 0.58 0.57 0.57 0.59 0.63 0.67 0.69 0.69 0.69 0.68 0.65 0.62 0.60 0.60 0.60 0.60 0.59 0.57 0.54 0.50 0.47 0.44 0.41 0.37 0.34 0.30 0.28 0.27 0.26 0.24 0.21 0.20 0.19 0.18 0.18 0.18 0.18 0.17 0.18 0.20 0.19 0.20 0.21 0.21 0.21 0.20 0.21 0.22 0.22 0.19 0.20 0.20 0.21 0.20 0.18 0.18 0.18 0.19 0.18 0.18 0.18 0.18 0.18 0.17 0.17 0.17 0.17 0.16 0.16
0.57 0.60 0.60 0.59 0.58 0.59 0.58 0.59 0.63 0.60 0.60 0.61 0.60 0.59 0.59 0.58 0.59 0.59 0.59 0.58 0.60 0.64 0.66 0.69 0.69 0.67 0.65 0.63 0.61 0.60 0.61 0.61 0.60 0.59 0.57 0.55 0.52 0.49 0.45 0.42 0.38 0.34 0.31 0.29 0.28 0.27 0.24 0.21 0.20 0.20 0.19 0.18 0.19 0.18 0.18 0.19 0.19 0.20 0.20 0.20 0.21 0.22 0.22 0.22 0.21 0.21 0.21 0.23 0.22 0.21 0.20 0.19 0.18 0.17 0.16 0.18 0.17 0.16 0.16 0.16 0.16 0.15 0.16 0.15 0.15
0.56 0.55 0.54 0.54 0.54 0.55 0.56 0.57 0.57 0.58 0.61 0.58 0.59 0.59 0.59 0.58 0.57 0.58 0.60 0.61 0.60 0.60 0.63 0.66 0.68 0.68 0.68 0.66 0.64 0.63 0.62 0.62 0.62 0.61 0.59 0.58 0.57 0.55 0.52 0.48 0.44 0.40 0.38 0.36 0.33 0.30 0.26 0.24 0.22 0.22 0.21 0.20 0.20 0.18 0.18 0.19 0.20 0.20 0.20 0.20 0.20 0.21 0.21 0.22 0.22 0.23 0.24 0.23 0.24 0.22 0.20 0.20 0.20 0.20 0.20 0.19 0.18 0.16 0.16 0.15 0.15 0.16 0.15 0.15 0.15
0.52 0.52 0.52 0.52 0.51 0.51 0.51 0.52 0.53 0.54 0.55 0.56 0.57 0.58 0.59 0.58 0.57 0.57 0.59 0.61 0.62 0.63 0.62 0.63 0.67 0.68 0.68 0.68 0.68 0.66 0.65 0.65 0.64 0.63 0.61 0.59 0.58 0.56 0.55 0.52 0.47 0.44 0.43 0.41 0.40 0.37 0.35 0.31 0.27 0.25 0.24 0.22 0.21 0.19 0.18 0.19 0.20 0.20 0.20 0.20 0.20 0.19 0.20 0.20 0.23 0.24 0.23 0.24 0.24 0.24 0.24 0.22 0.20 0.20 0.19 0.18 0.18 0.17 0.17 0.17 0.16 0.16 0.16 0.16 0.16
0.49 0.50 0.51 0.51 0.51 0.52 0.51 0.51 0.51 0.50 0.50 0.52 0.52 0.54 0.57 0.59 0.59 0.59 0.58 0.58 0.60 0.62 0.64 0.65 0.64 0.66 0.68 0.68 0.67 0.67 0.66 0.66 0.66 0.67 0.66 0.63 0.59 0.57 0.56 0.55 0.51 0.48 0.46 0.44 0.42 0.41 0.39 0.37 0.34 0.30 0.28 0.26 0.24 0.22 0.20 0.20 0.20 0.20 0.20 0.20 0.19 0.18 0.19 0.20 0.21 0.22 0.21 0.24 0.24 0.24 0.24 0.22 0.20 0.20 0.20 0.19 0.18 0.18 0.16 0.16 0.15 0.16 0.16 0.15 0.15
0.48 0.48 0.49 0.50 0.51 0.53 0.53 0.51 0.50 0.50 0.50 0.50 0.48 0.49 0.51 0.54 0.58 0.60 0.59 0.58 0.58 0.59 0.61 0.63 0.66 0.66 0.66 0.67 0.68 0.69 0.69 0.69 0.70 0.70 0.70 0.69 0.67 0.63 0.60 0.57 0.53 0.50 0.48 0.48 0.46 0.43 0.40 0.39 0.37 0.34 0.31 0.29 0.26 0.24 0.23 0.22 0.22 0.22 0.21 0.20 0.19 0.19 0.19 0.20 0.21 0.22 0.22 0.24 0.27 0.25 0.24 0.22 0.21 0.21 0.21 0.21 0.20 0.18 0.17 0.16 0.16 0.15 0.15 0.15 0.15
Wind_Speed
29 28 27 27 27 26 25 23 22 21 21 20 19 18 17 17 16 16 15 14 14 14 14 13 13 14 14 14 14 15 15 16 16 17 17 16 16 16 15 15 15 14 15 15 15 15 16 16 17 17 18 18 19 20 20 21 21 22 22 23 23 24 25 26 26 25 25 26 26 27 28 29 30 30 31 31 32 33 33 33 34 34 34 34 35
30 29 29 29 28 27 27 25 23 22 22 21 20 19 19 18 17 17 16 16 15 15 15 14 14 14 14 14 15 15 16 17 17 17 17 16 16 15 15 15 15 15 15 15 15 15 16 16 17 17 17 18 19 19 20 20 21 22 22 22 23 23 24 25 25 25 25 25 26 26 27 28 28 29 29 30 31 32 33 33 33 34 34 34 34
30 30 29 29 28 28 28 27 25 24 23 22 21 21 20 19 19 18 18 17 17 16 16 16 16 16 15 15 16 16 17 17 18 18 17 16 16 15 15 15 15 16 16 16 16 16 16 16 17 17 17 18 18 18 19 19 20 21 21 22 22 23 23 24 24 25 25 25 25 26 26 27 27 28 29 29 30 31 32 32 32 33 33 34 34
31 30 29 28 28 29 30 29 27 26 24 23 23 22 21 20 20 20 19 18 18 18 17 17 16 16 16 16 16 17 17 18 19 18 17 17 16 16 16 16 16 16 16 16 16 16 16 17 17 17 17 18 18 18 18 19 19 20 20 21 22 22 22 23 24 24 24 25 25 25 26 27 27 28 28 29 30 30 31 31 31 32 32 33 33
29 31 31 30 28 28 30 31 29 27 26 25 24 23 22 21 21 21 20 20 19 19 18 18 17 17 17 17 17 17 18 18 18 18 17 17 16 16 16 16 16 17 17 17 17 17 17 17 17 17 18 18 18 18 18 19 19 19 20 20 21 21 22 22 23 24 24 25 25 26 26 27 27 28 28 29 29 30 30 30 31 32 32 33 33
26 28 29 28 27 25 25 28 29 27 26 26 25 24 23 23 22 22 21 21 21 21 20 19 18 18 18 18 17 17 18 18 18 18 17 17 16 16 17 17 17 17 17 17 17 17 17 17 17 18 18 18 18 18 19 19 19 20 20 20 20 21 21 22 23 23 24 25 26 26 27 27 27 28 28 29 29 30 30 31 31 31 32 32 32
21 23 24 25 25 23 23 24 26 27 27 27 26 25 25 24 23 23 22 22 22 21 21 20 19 19 18 18 18 18 18 18 18 18 17 17 17 17 17 17 17 17 18 18 18 18 18 18 18 18 18 18 18 19 19 19 19 20 20 20 20 21 21 22 22 23 24 25 25 26 26 27 27 27 28 29 30 30 30 31 31 31 31 32 32
19 21 22 23 24 24 23 24 25 26 27 27 27 26 26 25 24 24 23 22 22 22 22 21 20 19 18 18 18 18 18 18 18 18 18 18 17 17 17 17 18 18 18 18 18 18 18 18 18 18 18 19 19 19 19 19 19 20 20 20 20 21 21 21 22 23 23 24 24 24 25 26 26 27 27 27 28 29 29 30 31 31 32 32 33
19 20 22 23 24 24 24 24 24 25 26 26 25 25 25 25 25 24 23 23 22 22 22 21 20 19 19 18 18 18 18 18 17 18 18 18 18 18 18 18 18 18 19 19 19 19 19 19 18 19 19 19 19 20 20 20 20 20 20 20 20 20 21 21 22 22 22 23 23 24 24 25 25 26 26 26 27 28 29 30 31 31 32 33 33
21 21 22 22 23 24 24 24 24 25 25 25 25 24 24 24 25 24 23 23 23 22 21 21 20 19 19 18 18 17 18 18 17 17 18 18 18 18 18 18 19 19 19 19 19 19 19 19 19 19 19 20 20 20 20 21 21 21 21 21 21 21 21 21 22 22 22 23 23 23 24 25 25 25 26 26 27 28 28 29 30 31 31 32 32
20 21 22 22 23 23 24 24 25 25 25 26 26 25 24 24 24 24 24 23 23 22 21 21 21 20 19 18 17 17 18 18 17 17 18 18 18 18 19 19 19 19 18 18 18 19 19 19 19 19 19 19 20 20 20 21 21 21 21 21 22 22 22 22 22 22 22 23 24 24 24 25 25 25 26 27 27 27 28 28 29 30 31 31 32
20 21 22 23 23 23 24 24 25 25 25 26 26 26 25 25 25 25 24 24 23 22 21 21 20 19 18 17 17 18 19 18 17 17 18 18 18 19 19 19 18 18 19 19 19 19 19 19 19 19 19 20 20 20 20 20 19 19 20 20 21 21 21 22 22 23 23 24 24 24 25 25 25 25 26 26 27 27 28 29 29 30 31 32 32
20 21 22 23 23 23 24 24 24 25 25 26 26 27 26 25 25 25 25 24 22 22 21 20 20 19 18 18 18 19 19 18 17 18 18 18 18 19 19 18 18 18 19 19 19 19 19 19 19 19 19 19 19 19 18 19 19 19 19 20 20 20 21 21 22 22 23 24 24 24 24 24 25 25 25 26 27 28 29 29 30 31 31 32 32
19 20 21 21 22 23 23 24 24 25 25 25 26 27 26 26 26 25 24 23 22 21 21 20 20 19 19 19 19 19 19 18 17 18 18 18 18 19 19 18 18 18 19 19 19 19 19 19 19 19 19 18 18 18 18 18 19 19 19 19 19 20 20 20 21 21 22 22 23 24 24 24 25 25 25 26 27 27 28 29 30 31 32 32 33
18 19 20 20 21 21 22 23 23 24 24 25 25 26 27 26 26 25 23 22 22 21 21 21 20 20 20 20 20 19 19 18 18 18 18 18 19 18 18 18 18 18 18 19 19 19 19 19 19 19 18 18 17 18 18 18 18 18 19 19 19 19 19 19 19 20 20 21 22 23 23 24 24 25 25 26 26 27 28 29 30 31 32 33 33
18 18 19 19 20 20 21 22 22 22 23 23 24 25 26 26 25 24 23 22 22 23 22 22 21 21 20 20 20 20 19 18 18 18 18 18 18 18 18 18 18 18 18 18 18 18 18 18 18 18 18 18 17 17 18 18 18 18 18 18 18 18 18 18 18 19 19 20 21 22 23 24 24 25 26 26 27 28 28 29 30 30 31 32 32
17 18 18 18 19 19 20 20 21 21 21 21 22 23 24 24 24 23 23 22 23 23 23 22 22 21 21 20 20 20 19 18 18 18 18 18 18 18 17 17 17 18 18 18 17 17 17 17 17 17 17 17 17 17 17 17 17 17 17 17 17 17 17 17 18 18 19 20 21 22 23 24 24 25 26 27 27 27 28 29 30 30 30 31 32
17 18 18 18 18 19 19 19 19 20 20 20 21 22 22 23 24 24 24 24 24 24 23 22 21 21 21 21 20 20 19 19 18 18 18 18 18 17 17 17 17 17 17 17 16 16 16 16 16 16 16 16 16 16 16 16 16 16 16 16 16 16 17 17 18 18 19 19 20 21 22 23 24 24 25 26 27 27 27 28 29 29 30 31 31
18 18 19 19 19 19 19 19 20 20 20 20 20 20 22 23 24 25 25 25 25 24 23 22 22 22 22 21 20 20 19 19 18 18 18 17 17 17 17 17 17 17 17 16 16 16 16 15 15 16 16 15 15 15 15 15 15 15 15 15 15 16 16 17 18 18 18 18 19 20 21 21 22 23 23 24 25 25 26 27 28 29 30 31 31
19 19 20 20 20 20 20 21 21 21 22 21 21 21 21 23 24 25 26 27 26 25 24 23 23 22 22 21 20 20 19 19 19 18 18 17 17 17 17 17 17 17 17 16 16 16 16 16 15 15 15 15 15 15 15 15 15 15 15 15 15 16 16 17 17 17 17 18 19 19 20 20 21 21 22 23 23 24 24 25 26 27 28 29 30
20 21 21 21 21 21 22 22 22 22 23 23 23 23 23 23 24 24 26 26 27 26 25 24 23 22 22 21 21 20 20 20 19 18 18 18 17 17 17 17 17 17 17 16 16 16 15 15 14 14 14 14 14 14 14 14 14 14 14 14 15 16 16 16 16 16 16 17 17 18 19 19 20 21 21 22 22 23 23 24 24 25 26 27 28
22 22 22 22 22 22 23 23 23 23 23 24 25 25 25 25 25 25 25 26 26 26 26 25 24 23 22 22 21 21 20 20 20 19 18 18 18 18 18 17 17 17 17 16 16 15 15 14 14 14 14 14 14 14 14 14 14 14 14 14 15 15 15 15 14 15 15 16 16 17 18 19 19 20 20 21 22 22 23 23 24 25 25 25 25
22 23 23 24 24 24 24 24 24 24 24 25 25 25 26 26 26 26 26 27 27 27 27 26 24 23 23 22 22 21 21 21 20 20 19 19 19 18 18 18 18 17 17 17 16 16 15 15 14 13 14 14 14 14 14 14 13 13 14 14 14 14 13 13 14 14 14 15 16 17 17 18 18 19 20 21 22 22 22 22 23 23 23 22 22
21 22 23 24 25 25 25 25 25 25 26 26 26 26 26 26 26 26 28 28 29 28 28 27 26 24 24 23 23 22 22 21 21 21 20 19 19 19 19 19 18 18 17 17 17 16 15 15 14 14 14 14 14 14 14 14 14 13 13 14 13 12 12 13 13 14 14 15 16 16 16 17 17 18 19 20 21 22 21 21 21 20 19 18 18
20 21 22 23 24 25 26 26 26 26 26 27 27 27 28 27 26 27 28 29 29 29 28 28 26 25 25 24 23 23 22 22 21 21 20 20 20 20 19 19 18 18 18 17 17 16 15 15 14 14 14 14 14 14 14 14 14 14 13 13 12 12 12 12 13 13 14 14 15 15 16 16 16 17 18 19 20 20 20 20 19 17 15 14 14
21 21 22 22 23 24 25 26 27 27 27 28 28 29 29 29 29 29 29 30 30 30 29 28 27 26 26 25 24 23 23 22 22 21 21 21 20 20 20 19 19 18 18 18 17 16 16 15 15 14 14 14 14 14 14 14 14 13 13 12 12 11 12 12 13 13 14 14 15 15 15 15 16 16 17 18 19 19 19 19 18 16 14 12 11
22 22 23 23 23 23 24 25 26 27 28 28 29 29 30 30 31 31 31 32 31 31 31 30 29 28 27 26 24 24 23 23 22 22 21 21 21 20 20 19 19 18 18 17 17 16 16 15 15 15 14 14 14 14 14 14 13 13 12 12 12 12 12 13 13 13 13 14 14 14 14 15 15 15 16 17 17 18 18 18 17 15 13 11 10
24 24 24 24 23 24 24 25 25 26 27 28 29 30 30 31 31 32 33 33 33 32 32 32 31 29 28 26 25 24 24 24 23 23 22 21 21 20 20 19 19 18 17 17 16 16 16 15 15 15 14 14 14 14 14 13 13 13 12 12 12 12 12 13 13 13 13 13 14 14 14 14 14 14 15 15 16 17 17 17 16 14 13 11 10
25 25 25 25 24 24 24 25 25 26 27 27 28 29 30 31 32 32 33 33 34 33 32 32 31 29 28 27 26 26 25 25 24 23 22 21 21 20 19 19 18 18 17 16 16 16 16 16 15 15 15 14 14 14 13 13 13 13 12 12 12 12 12 12 12 12 13 13 13 13 13 13 13 14 14 14 15 16 16 16 16 15 13 11 11
26 26 26 25 25 25 25 25 25 26 27 27 28 29 30 30 31 32 32 32 33 34 33 33 33 31 29 29 28 26 25 24 23 22 22 22 21 20 19 19 18 17 17 16 16 16 16 16 16 15 15 14 14 13 14 13 13 13 12 12 12 12 12 12 12 12 12 12 12 12 12 13 13 13 13 13 14 14 15 15 15 15 13 12 11
27 27 26 26 26 26 26 26 26 26 27 27 28 28 29 29 30 31 31 32 33 34 34 34 33 32 30 29 27 26 24 23 22 22 22 21 21 21 20 19 18 18 17 17 16 16 16 16 16 15 15 14 14 14 14 14 13 13 12 12 12 11 11 12 12 12 12 12 12 12 12 12 12 12 12 13 13 13 13 14 14 14 13 12 12
28 28 27 27 27 27 27 26 26 26 26 27 27 28 28 29 29 29 30 31 32 33 33 33 32 31 30 28 27 26 25 24 23 22 22 21 21 21 20 19 19 18 18 17 17 16 16 16 16 16 15 15 14 14 14 14 13 13 13 12 12 11 11 11 11 12 11 11 11 11 11 11 12 12 12 12 12 12 12 12 13 13 13 12 12
30 29 29 28 28 28 28 27 27 26 26 26 27 27 27 28 28 28 28 29 30 31 32 32 32 31 30 28 27 26 25 24 23 22 22 21 21 21 20 20 19 18 18 17 17 17 17 16 16 16 15 15 14 14 14 14 14 13 13 12 12 12 11 11 11 11 11 11 11 11 11 11 11 12 12 12 12 12 11 11 11 11 11 12 11
30 30 30 29 29 29 28 28 27 27 26 26 26 26 26 27 27 27 27 28 28 29 31 31 31 31 30 28 27 26 25 25 24 23 22 21 21 20 20 19 19 19 18 18 17 17 17 17 17 16 16 15 15 14 14 14 14 14 13 12 12 12 11 11 11 11 11 11 11 11 11 11 11 11 11 11 11 11 11 10 10 10 10 10 10
30 29 29 29 29 28 27 27 27 26 26 26 26 25 25 25 25 26 26 27 28 29 30 31 31 30 29 28 27 27 26 25 24 23 22 21 20 20 20 19 19 19 19 18 18 17 17 17 17 16 16 15 15 14 14 14 14 14 13 12 12 12 11 11 11 11 11 10 10 10 10 10 11 11 11 11 10 10 10 10 10 9 9 9 9
28 28 27 28 28 27 26 26 26 26 26 26 25 25 25 25 24 25 25 26 27 28 29 30 30 29 28 28 27 26 25 25 24 23 22 21 20 20 20 20 19 19 19 18 18 18 18 17 17 16 16 15 15 15 14 14 14 13 13 12 12 12 11 11 11 11 10 10 10 10 10 10 10 10 10 10 10 10 9 9 9 8 8 8 8
27 27 26 25 26 25 25 25 25 25 25 25 25 24 24 24 24 24 23 24 26 27 28 28 29 29 28 28 27 26 25 24 23 23 22 21 21 20 20 20 19 19 19 18 18 18 18 18 17 17 16 15 15 15 14 14 14 13 13 12 12 11 11 11 11 10 10 10 10 10 10 10 10 10 10 10 10 9 9 8 8 7 7 8 8
26 25 24 24 24 24 24 23 24 24 24 24 23 23 23 23 23 22 22 22 24 26 27 28 29 29 28 27 26 25 24 23 23 22 22 22 21 21 21 20 20 19 19 18 18 18 18 18 17 17 16 16 15 15 14 14 13 13 12 12 12 11 11 11 10 10 10 10 9 9 9 9 9 9 9 9 9 9 9 8 8 7 7 7 7
24 23 22 22 23 23 22 22 22 22 22 22 22 22 22 21 21 21 21 21 23 25 26 26 27 28 27 26 25 25 24 23 23 23 22 22 22 22 21 21 20 20 19 19 19 19 18 18 17 17 16 16 15 15 14 14 13 13 12 12 11 11 11 11 10 10 10 9 9 9 9 9 9 9 9 9 8 8 8 8 7 7 7 6 6
23 21 20 20 21 20 20 20 20 20 20 20 20 20 20 20 20 20 20 20 21 24 25 25 25 26 26 26 26 25 24 23 23 23 22 22 21 21 21 21 21 21 20 20 19 19 19 18 18 17 17 16 15 15 14 14 13 13 12 12 11 11 11 10 10 10 9 9 9 9 9 9 9 9 8 8 8 7 7 7 7 6 6 6 5
21 20 19 19 19 19 18 18 18 18 18 18 18 18 19 19 19 20 19 18 20 23 25 24 24 25 25 25 26 25 24 23 22 22 22 21 21 21 21 21 21 21 21 20 20 19 19 18 18 17 17 16 16 15 14 14 13 13 12 12 11 11 11 10 10 10 9 9 9 9 9 9 9 8 8 7 7 7 6 6 6 6 5 5 5
20 19 19 19 18 18 18 18 17 17 16 16 16 17 17 18 18 19 19 19 19 22 24 25 25 24 24 25 26 26 24 23 22 22 21 21 20 20 20 21 21 21 21 20 20 20 19 18 18 17 17 16 16 15 15 14 14 13 13 12 11 11 11 10 10 10 9 9 9 8 8 8 8 7 7 6 6 6 6 5 5 5 5 4 4
20 19 19 19 18 18 18 17 16 16 15 15 15 16 16 17 17 17 18 19 19 21 23 25 25 24 23 24 25 25 24 23 22 21 21 21 20 20 20 20 20 20 20 20 20 20 19 19 18 18 17 17 16 16 15 15 14 14 13 12 12 11 11 10 10 10 9 9 8 8 8 8 8 7 6 6 6 5 5 5 5 5 5 4 4
19 18 18 18 17 17 17 16 15 15 15 15 15 15 15 16 17 17 17 18 19 21 23 23 24 24 24 24 24 25 25 24 23 22 21 21 21 20 19 19 19 20 20 20 20 20 20 19 18 18 17 17 17 16 16 15 15 14 13 12 12 11 11 11 10 10 9 9 8 8 8 7 7 7 6 6 5 5 5 5 4 4 4 4 4
17 17 16 16 15 16 16 16 16 15 15 15 15 15 15 16 16 17 17 17 18 20 22 23 23 23 24 24 25 25 25 24 24 23 22 22 21 21 20 19 19 19 19 19 20 20 20 19 19 18 18 17 17 17 16 15 15 14 14 13 12 12 11 11 10 10 9 9 8 8 7 7 7 7 6 6 6 5 5 5 5 4 4 4 4
16 15 14 14 14 15 15 15 15 15 14 14 14 15 15 16 16 16 17 17 17 18 21 23 24 24 23 24 25 25 25 25 24 24 23 22 22 21 20 20 19 19 19 19 19 19 19 19 19 19 18 18 17 17 16 16 15 15 14 13 13 12 12 11 11 10 10 9 9 8 8 7 7 7 7 6 6 6 5 5 5 5 4 4 4
15 15 14 14 14 14 14 14 14 14 14 14 14 14 15 15 16 16 16 17 17 17 18 21 24 25 24 24 24 25 25 25 24 24 24 23 22 22 21 20 19 19 19 19 19 19 19 19 19 19 19 18 18 17 17 16 16 16 15 14 13 13 12 12 11 11 11 10 10 9 8 8 8 7 7 7 6 6 6 6 5 5 5 4 4
16 15 15 15 15 15 14 14 14 14 13 13 13 14 14 15 15 16 16 16 16 17 17 18 21 24 25 24 24 23 24 25 24 24 24 23 23 22 22 21 21 20 19 19 19 19 19 19 19 19 19 19 18 18 17 17 17 16 16 15 14 13 13 12 12 12 11 11 10 10 9 9 8 8 8 7 7 6 6 6 6 5 5 5 4
17 16 16 15 15 15 15 15 15 15 14 14 14 14 14 14 14 15 16 16 16 16 16 17 18 21 24 25 24 23 24 25 25 24 24 24 24 23 23 23 22 21 20 20 20 20 19 19 19 19 19 19 19 18 18 18 17 17 17 16 15 14 14 13 13 12 12 12 11 11 10 10 9 9 8 8 8 7 7 7 6 6 6 5 5
18 17 17 16 16 16 15 15 15 15 15 15 15 15 15 15 15 15 15 15 16 16 16 16 17 19 21 24 25 24 25 26 26 26 25 25 25 25 24 24 24 23 22 22 21 21 20 20 20 20 20 19 19 19 19 19 18 18 18 17 16 16 15 15 14 13 13 13 12 12 11 11 10 10 9 9 8 8 8 7 7 6 6 6 6
19 19 18 18 17 16 16 15 15 15 15 15 15 15 15 15 15 15 15 15 16 16 16 17 17 17 19 21 24 25 26 27 27 28 27 27 27 26 26 25 25 25 24 23 23 22 22 21 21 21 21 21 20 20 20 19 19 19 19 18 18 17 17 16 15 15 15 14 13 13 12 12 11 11 10 10 9 9 8 8 8 7 7 7 6
Wind_Direction
243 244 243 243 243 243 242 242 243 242 242 243 246 249 252 256 259 264 269 273 276 279 282 284 286 288 290 292 294 296 300 303 305 306 305 302 300 297 295 293 292 290 287 285 282 280 278 276 275 273 272 271 270 269 268 268 268 267 267 267 266 266 265 266 266 267 267 267 266 266 265 265 265 265 264 264 263 263 263 264 263 262 261 260 260
242 243 243 243 243 242 241 242 242 241 241 243 246 250 253 255 258 262 267 271 274 276 278 281 284 285 286 289 291 294 298 301 304 307 306 304 301 298 295 294 292 291 289 288 285 282 280 278 276 274 273 272 271 271 270 269 268 268 267 267 267 266 266 267 268 269 269 268 268 268 267 267 266 266 265 264 264 264 263 263 263 263 262 261 261
241 243 242 241 242 243 241 241 241 241 241 244 247 249 252 255 258 261 265 269 271 272 275 279 282 282 284 286 289 292 295 299 303 305 305 304 302 299 296 294 292 291 289 288 286 284 282 279 277 276 275 274 273 272 272 271 270 269 268 268 267 267 267 267 267 268 269 269 269 269 269 268 268 267 266 266 265 265 265 264 263 263 262 262 262
241 241 240 240 243 245 242 240 240 241 242 245 247 249 251 254 257 260 263 266 269 270 272 276 278 280 283 285 286 289 294 297 300 302 302 303 302 300 298 294 291 290 288 287 286 285 283 281 280 278 277 276 275 274 273 273 272 271 271 270 269 269 268 267 267 267 268 269 269 269 269 269 269 268 268 268 267 266 266 265 264 263 263 262 262
242 240 241 243 245 247 245 240 239 241 243 245 247 248 251 254 256 259 261 263 266 268 270 272 275 278 281 283 285 288 293 297 299 299 299 300 301 300 298 295 292 289 287 285 284 284 283 281 281 280 278 277 276 276 275 274 274 273 273 272 272 271 270 269 269 269 269 270 270 270 270 270 269 269 269 269 269 268 267 266 265 265 264 263 263
243 240 241 242 243 246 245 239 237 240 242 244 246 248 250 252 255 257 259 261 263 266 268 269 271 273 277 280 284 288 292 296 297 297 297 298 299 299 298 295 292 289 287 285 283 282 281 281 280 280 278 277 277 277 276 276 276 275 275 275 274 273 273 272 272 271 271 272 272 272 271 271 271 270 269 269 269 269 268 268 267 266 265 264 264
243 239 240 241 242 244 243 238 238 241 243 246 248 250 251 252 253 255 257 259 261 263 265 267 269 271 274 278 283 288 292 294 295 295 296 297 298 298 297 295 292 290 288 286 284 282 281 280 279 279 278 277 277 277 277 277 276 276 276 276 276 275 275 275 274 274 274 274 274 274 273 272 271 271 271 270 269 269 268 268 268 267 266 266 265
245 244 243 243 244 244 243 243 243 244 246 249 250 251 251 252 252 253 255 258 259 261 262 264 266 268 271 276 281 286 290 292 293 295 296 296 297 297 296 295 293 291 290 288 285 283 281 280 279 278 277 277 277 277 277 277 276 276 276 277 277 277 277 277 277 277 277 277 277 277 276 275 274 273 273 272 271 270 269 268 268 268 267 267 266
250 249 248 247 247 246 247 248 248 247 247 248 249 250 250 251 252 253 255 256 258 260 261 261 262 265 269 273 279 284 288 290 292 295 296 296 296 296 296 295 294 292 290 288 285 283 281 279 278 278 277 276 276 276 277 277 276 276 276 277 277 277 278 278 278 279 279 279 279 278 278 277 277 276 275 274 273 272 271 270 269 269 268 267 267
254 253 252 250 250 250 251 252 252 251 249 248 248 249 249 249 250 251 253 255 257 259 259 258 259 262 266 271 277 283 287 290 292 295 296 295 296 296 295 295 294 292 290 288 286 283 281 280 278 278 277 276 276 276 276 276 276 276 276 277 277 277 278 278 278 279 279 279 279 280 279 278 278 277 277 276 275 274 273 271 270 270 269 268 267
259 257 255 253 252 253 254 254 254 253 250 248 247 248 248 248 249 250 251 255 257 257 256 254 255 259 263 269 276 283 287 289 292 294 295 295 295 295 295 294 292 291 290 288 286 284 282 281 279 278 278 277 277 277 277 277 277 278 278 278 278 277 277 278 278 278 279 280 280 280 280 280 279 278 277 277 277 276 275 273 272 271 270 269 268
262 259 258 257 256 256 256 256 255 254 251 249 248 248 248 248 249 249 251 254 255 253 251 251 252 256 261 268 276 283 286 287 290 292 293 294 294 294 293 292 291 290 289 287 286 285 283 281 280 279 278 278 279 278 278 278 278 278 278 278 278 277 277 278 279 279 280 281 282 282 282 282 281 280 279 278 278 277 276 275 274 273 271 269 269
266 263 262 261 260 259 257 256 256 255 254 252 250 248 248 248 247 248 250 252 250 247 246 248 250 254 260 268 276 282 284 285 287 289 291 291 292 292 292 290 289 289 288 287 286 284 283 282 281 280 279 279 279 278 279 280 280 279 279 280 280 280 279 279 280 281 282 283 283 284 284 284 283 283 282 281 280 278 277 276 275 274 272 271 269
270 268 266 263 262 260 259 258 259 257 255 253 251 248 246 247 246 246 247 246 243 241 243 245 249 254 261 268 276 280 281 282 285 287 288 290 290 291 290 290 289 289 288 287 286 284 283 282 281 280 279 279 278 278 280 281 282 282 282 283 283 283 282 282 281 282 283 283 283 284 285 285 285 285 285 284 282 280 278 277 276 274 273 272 271
272 270 268 267 264 262 260 260 260 257 254 253 252 248 246 246 245 242 240 239 238 240 243 246 251 256 262 268 275 278 279 280 283 285 287 288 290 290 290 290 290 289 288 287 286 284 283 282 280 279 279 279 278 279 281 281 282 282 283 284 284 284 283 283 283 284 284 284 285 286 287 287 287 287 287 286 285 283 282 280 277 275 274 272 271
276 273 272 270 267 264 262 261 260 258 255 254 251 248 246 244 239 235 235 236 238 241 244 248 252 257 261 267 273 276 277 278 281 284 285 287 289 290 290 290 290 290 290 288 287 285 283 281 279 279 279 278 278 279 281 282 281 281 282 284 284 284 283 284 285 286 286 287 288 289 289 289 288 288 288 287 286 286 284 282 281 278 275 272 271
277 276 274 273 270 266 264 263 261 259 257 253 249 246 243 238 233 232 234 236 238 242 245 249 253 256 260 265 270 274 275 276 279 281 283 286 288 289 290 290 291 291 290 289 287 285 283 282 281 280 279 279 279 279 280 281 280 280 281 283 284 284 284 285 288 288 288 289 289 289 289 289 289 289 288 287 286 286 285 283 282 280 276 273 272
278 277 276 274 271 269 268 265 262 260 257 253 248 244 241 237 234 236 239 240 241 243 246 250 253 256 259 264 268 271 273 275 277 279 282 284 287 289 290 290 291 292 290 288 287 285 283 282 282 282 281 280 280 279 278 278 279 279 281 283 284 285 285 288 292 293 292 291 291 291 291 291 292 291 291 290 289 288 287 285 283 280 277 274 273
278 277 276 275 272 270 268 265 262 260 257 254 251 247 243 240 239 240 241 241 241 244 246 250 254 256 259 263 267 269 271 274 275 277 280 282 284 288 289 290 292 292 289 287 286 284 283 283 282 282 282 281 280 278 277 277 277 279 281 282 284 286 288 292 294 295 296 295 295 296 296 296 296 295 295 294 293 292 290 288 285 282 279 275 273
279 277 276 275 273 271 268 266 264 261 258 256 253 249 246 243 242 242 241 239 240 243 246 250 253 256 258 262 265 267 269 272 273 274 277 279 282 286 288 289 290 289 287 285 284 283 283 283 282 281 281 280 279 277 276 276 277 278 280 282 285 288 291 293 293 295 298 298 298 300 301 301 301 301 301 300 299 297 294 292 289 285 281 277 274
280 279 277 275 274 272 269 267 265 262 259 256 253 250 248 246 245 243 240 237 239 242 246 249 251 253 257 260 264 265 267 270 272 272 274 277 279 283 286 289 289 286 285 283 281 280 280 280 280 280 280 280 278 277 275 275 276 277 279 282 286 289 291 292 292 295 298 300 301 304 306 307 307 307 308 307 306 304 302 299 295 289 284 280 276
280 279 277 276 275 273 270 268 266 264 261 257 254 252 250 249 248 245 240 237 238 242 245 247 249 252 256 260 262 264 266 268 270 271 272 275 277 279 283 287 287 285 282 281 279 277 276 276 278 280 281 281 278 276 275 274 275 276 279 284 287 289 290 291 293 296 300 302 305 308 309 311 311 312 313 313 311 310 308 305 301 297 290 284 279
282 280 278 277 275 273 271 268 266 265 262 259 256 254 252 250 250 247 242 240 241 242 244 247 250 252 256 259 261 263 265 267 269 269 271 272 274 276 280 283 284 282 280 278 276 274 273 274 276 279 280 279 277 275 274 274 275 277 282 286 287 288 290 292 295 298 301 305 307 309 311 313 315 316 317 317 316 315 313 311 307 303 297 289 283
288 284 281 278 276 274 272 269 267 265 263 260 258 256 254 252 251 249 245 244 245 245 245 247 249 251 254 257 260 262 263 265 267 268 269 270 272 274 277 279 279 278 277 275 273 272 271 272 274 277 277 276 275 274 273 273 276 280 283 285 286 287 291 294 297 300 302 305 309 311 313 316 317 318 319 320 320 319 318 317 314 310 305 297 289
294 291 287 282 278 276 273 271 268 266 263 261 259 257 255 253 251 249 247 246 247 247 246 246 247 250 253 256 259 261 262 264 266 267 267 268 270 272 274 276 276 275 273 272 271 270 269 270 272 274 273 273 273 274 273 272 274 279 282 283 284 288 292 295 298 301 303 306 309 312 315 317 319 320 321 324 325 325 325 324 322 319 316 309 299
297 295 292 288 283 279 276 273 270 266 263 261 260 258 256 253 251 250 249 248 248 247 246 246 248 250 252 254 257 258 260 262 264 266 266 267 268 269 271 273 272 271 270 270 269 268 267 268 269 270 270 270 272 274 274 273 273 277 280 282 284 289 293 297 300 302 303 306 309 312 315 318 320 322 323 327 330 331 331 331 330 327 324 317 308
298 297 294 291 287 283 279 276 273 269 265 262 260 258 257 255 252 251 250 249 248 247 246 246 248 250 250 252 255 256 258 261 263 264 265 265 266 267 268 270 270 269 268 268 267 266 265 265 267 268 268 268 271 273 273 273 275 278 280 281 284 288 293 297 300 301 304 307 309 312 315 318 320 323 326 330 334 336 336 337 336 333 329 324 316
296 296 294 292 289 285 282 279 276 273 269 264 260 258 257 255 253 251 250 249 248 247 246 247 247 248 249 251 252 254 256 259 261 262 262 262 263 264 265 266 267 266 266 266 265 265 264 264 265 265 264 265 268 270 271 273 276 278 279 280 283 287 292 295 298 301 304 307 309 312 315 317 320 323 327 331 335 338 340 343 343 339 335 331 326
295 294 292 290 288 286 284 281 278 275 272 268 263 260 257 255 254 253 251 249 247 246 246 246 245 245 248 250 251 253 255 257 259 260 259 258 259 261 263 264 264 264 264 264 264 264 262 262 263 262 262 264 266 268 269 272 274 275 276 278 281 286 291 295 298 301 305 307 310 312 314 316 319 322 326 330 335 339 342 346 348 346 342 338 334
294 293 292 290 288 287 285 282 279 276 273 270 267 263 259 257 256 255 252 250 248 247 246 245 244 244 247 250 251 252 254 255 256 257 257 256 256 258 260 262 262 261 261 262 262 261 260 260 260 259 261 263 264 265 267 268 270 271 273 276 279 284 289 293 297 301 304 307 310 312 313 316 318 321 324 328 333 337 342 347 350 351 349 345 341
293 293 292 290 288 287 285 283 280 277 274 271 269 266 262 258 257 256 255 251 249 247 245 244 243 243 246 248 249 250 251 252 253 254 255 254 253 254 256 257 257 257 258 259 259 258 257 258 257 257 259 261 262 264 265 266 267 269 271 274 277 282 287 292 297 300 303 306 310 312 313 315 317 319 322 326 329 334 339 344 348 352 353 352 349
291 292 291 290 288 287 285 283 280 277 275 273 270 267 264 260 257 257 256 253 249 246 244 242 241 242 245 246 246 246 247 248 251 253 254 253 252 252 253 254 254 254 255 256 256 255 255 255 254 255 258 260 261 262 263 264 266 267 270 273 276 280 285 290 295 298 301 305 308 310 312 313 315 317 320 323 325 329 334 340 345 350 354 356 355
290 290 289 288 288 286 284 282 280 277 274 273 271 269 265 262 259 256 255 253 250 246 243 241 240 241 242 243 243 243 244 246 248 250 251 251 250 249 250 250 250 251 252 253 254 253 253 253 253 255 257 259 260 261 262 263 265 266 268 271 274 278 283 287 291 295 299 302 305 308 309 311 313 316 318 320 323 326 329 335 340 346 352 357 360
291 291 290 288 287 286 284 281 278 276 274 272 272 269 266 263 261 257 253 251 248 245 242 241 239 239 239 240 240 240 241 243 245 246 248 248 248 247 247 247 248 249 250 251 252 252 251 251 252 254 256 257 258 259 260 262 263 264 266 268 272 276 280 283 288 293 296 299 302 305 307 309 311 313 316 318 320 322 326 329 333 339 345 352 358
292 291 291 289 286 285 283 280 277 274 272 271 271 269 266 263 261 258 254 251 248 244 241 239 237 235 235 236 237 238 240 241 242 243 245 246 245 244 244 245 246 247 248 249 250 250 249 250 251 253 254 255 256 257 259 260 261 262 264 266 270 273 276 280 284 289 293 297 300 303 305 307 309 310 313 316 318 320 323 326 328 331 336 342 350
293 291 291 289 287 284 282 280 277 274 272 271 270 268 266 263 261 260 257 252 248 244 239 236 233 231 231 233 235 237 238 239 239 241 242 243 242 242 242 244 245 245 246 246 247 248 248 248 250 251 252 252 254 255 257 258 259 260 262 265 268 270 273 276 280 285 290 294 298 301 303 306 307 308 310 314 316 317 320 323 324 326 329 333 337
294 292 290 288 288 287 283 280 277 275 273 272 269 267 266 263 261 261 259 253 247 242 237 232 228 227 229 233 236 236 236 237 238 239 241 241 240 241 242 243 243 244 244 244 245 246 246 247 248 249 250 251 252 253 255 256 257 258 260 263 265 267 271 274 277 282 287 291 295 299 302 303 305 305 307 310 313 314 315 316 318 321 324 326 328
295 293 290 286 287 288 286 281 278 276 274 272 269 266 264 262 259 259 260 255 246 238 233 229 226 226 230 233 234 233 232 233 236 238 239 239 239 240 242 243 242 242 243 243 243 244 245 246 247 248 249 249 250 251 253 254 256 257 258 260 263 265 267 270 273 277 283 287 292 296 300 301 302 302 303 305 307 309 310 310 310 312 315 319 322
299 296 291 287 286 288 287 284 281 278 274 271 269 266 263 261 257 257 259 256 245 235 230 227 226 227 231 232 230 228 229 231 234 236 237 238 238 240 241 242 241 241 241 241 242 242 243 244 245 246 247 247 248 249 251 252 253 254 256 258 260 262 264 267 270 274 278 283 288 293 297 300 300 300 300 301 302 305 307 307 306 307 309 311 315
301 297 292 289 288 289 289 286 283 280 275 272 269 266 263 260 257 254 256 254 243 232 227 226 227 230 232 230 227 226 228 232 235 236 236 237 238 239 240 240 240 240 239 239 240 241 242 243 244 245 245 245 246 247 249 250 251 252 253 255 258 260 262 265 268 271 275 280 285 290 294 297 298 298 298 298 298 301 304 305 304 305 306 308 311
303 298 294 291 289 290 290 289 286 282 277 273 270 267 264 261 257 253 252 252 243 232 227 227 230 232 232 228 225 226 229 232 234 235 235 236 237 238 239 240 239 238 238 238 238 240 241 242 243 243 244 244 244 245 247 247 248 249 251 252 255 257 259 261 264 268 272 277 282 287 291 294 296 297 296 295 295 299 302 303 304 305 307 309 311
302 299 296 294 291 290 290 290 288 284 279 274 271 269 265 263 259 254 251 250 245 237 232 231 232 233 231 228 225 226 229 231 233 233 234 236 237 237 238 238 237 237 236 236 237 238 239 240 242 242 242 242 243 243 244 245 246 247 248 250 252 254 256 258 261 265 269 273 278 284 289 291 292 293 293 291 292 296 298 299 303 304 305 308 310
301 298 296 294 293 293 292 291 289 286 281 277 273 270 266 263 261 258 255 251 247 242 238 235 234 234 233 229 227 227 229 231 231 232 233 235 236 236 237 237 236 236 235 235 236 237 238 239 241 241 241 241 242 242 242 243 244 245 247 248 250 252 254 256 259 261 264 269 274 279 284 286 287 289 289 288 288 291 293 294 298 301 301 302 303
304 301 298 295 293 293 293 293 291 289 285 281 276 271 268 265 263 261 259 255 250 243 240 238 236 235 233 231 229 229 231 231 231 231 232 234 235 236 237 237 237 236 235 235 236 237 237 239 239 240 240 240 240 240 241 242 242 244 245 247 248 250 253 255 256 258 260 264 269 273 277 280 281 283 284 285 285 285 286 288 289 291 293 294 293
308 305 302 299 298 297 296 294 292 289 287 284 279 273 269 268 266 263 260 258 254 248 242 239 237 236 234 232 230 230 231 231 231 231 232 233 234 235 236 236 236 236 236 236 236 237 237 238 238 238 238 239 238 238 239 240 241 242 244 246 247 249 251 253 253 254 256 259 263 267 271 274 276 277 278 280 281 281 281 282 281 281 282 284 284
313 307 304 303 303 303 303 301 298 292 286 284 282 278 273 270 269 267 263 259 256 253 247 241 239 237 235 233 233 232 231 231 232 232 232 233 234 235 235 235 235 235 235 235 236 237 237 237 237 237 236 237 237 237 238 239 240 242 243 245 246 248 249 250 251 251 252 255 259 263 267 270 273 275 276 277 278 280 279 277 276 274 274 275 274
318 312 307 304 303 301 301 304 305 301 294 287 284 282 279 274 271 270 267 262 259 258 253 245 240 238 237 236 236 234 232 231 232 232 231 232 233 234 233 233 234 234 234 234 235 236 236 236 236 235 235 235 236 236 237 238 240 241 242 243 244 246 247 248 248 249 250 252 256 259 262 265 268 270 273 275 276 277 276 274 272 270 268 267 265
318 315 310 307 305 302 298 297 299 301 300 296 290 286 284 279 274 272 270 265 261 260 258 250 243 239 237 237 237 235 233 231 232 232 231 231 232 233 234 234 234 235 234 234 236 237 236 235 235 234 234 235 235 236 237 238 239 240 240 241 243 244 245 246 248 249 249 250 252 255 258 261 264 265 268 270 271 271 270 269 267 264 260 258 257
313 313 310 307 306 304 301 298 296 295 296 297 295 291 287 284 279 274 272 268 263 260 258 254 248 242 238 237 237 237 236 234 233 233 233 233 233 233 234 235 236 237 236 236 237 238 237 235 234 234 234 235 236 237 237 238 238 238 239 240 241 242 242 245 249 250 248 248 250 252 254 257 260 261 263 265 266 267 267 265 262 259 255 251 248
307 308 307 305 303 302 300 298 297 296 294 294 293 292 289 287 283 278 273 270 266 262 258 256 252 247 242 239 239 239 239 237 236 235 235 235 235 235 234 234 235 237 237 238 239 239 238 237 235 234 235 236 237 237 238 238 238 239 239 239 239 240 241 244 247 248 248 248 249 251 252 254 255 255 257 260 261 261 261 260 256 253 251 247 243
303 302 302 301 299 298 297 296 296 296 295 293 292 290 288 287 286 282 276 272 268 264 260 258 255 252 247 244 241 240 240 239 238 236 235 236 236 236 235 234 235 235 235 237 239 240 240 239 237 236 236 236 237 238 238 239 239 238 238 238 239 240 241 243 246 248 248 249 249 249 250 251 252 252 253 255 256 256 255 254 251 249 247 244 240